This is the latest recevied weather packets stored in our database for station/object WX0ABE-13. If no packets are shown the sender has not sent any weather packets the latest 10 day(s).
| Time | Temp. | Humidity | Pressure | Rain* | Wind** | Luminosity | Snow |
|---|---|---|---|---|---|---|---|
| 1788214614 | 31.67° C | 25% | 1017 hPa | 0 mm | - | 129 W/m² | - |
| 1788214309 | 31.67° C | 25% | 1017.2 hPa | 0 mm | - | 165 W/m² | - |
| 1788214004 | 31.67° C | 26% | 1017.2 hPa | 0 mm | - | 235 W/m² | - |
| 1788213699 | 32.22° C | 27% | 1017.2 hPa | 0 mm | - | 268 W/m² | - |
| 1788213395 | 32.22° C | 27% | 1017.1 hPa | 0 mm | - | 371 W/m² | - |
| 1788213090 | 32.22° C | 25% | 1017 hPa | 0 mm | - | 534 W/m² | - |
| 1788212787 | 31.67° C | 27% | 1017.2 hPa | 0 mm | - | 566 W/m² | - |
| 1788212484 | 32.22° C | 26% | 1017.3 hPa | 0 mm | - | 193 W/m² | - |
| 1788212180 | 32.22° C | 28% | 1017.4 hPa | 0 mm | - | 482 W/m² | - |
| 1788211875 | 33.33° C | 25% | 1017.4 hPa | 0 mm | - | 512 W/m² | - |
| 1788211571 | 32.78° C | 25% | 1017.3 hPa | 0 mm | - | 470 W/m² | - |
| 1788211267 | 32.22° C | 28% | 1017.6 hPa | 0 mm | - | 273 W/m² | - |
| 1788210967 | 32.22° C | 26% | 1017.4 hPa | 0 mm | - | 532 W/m² | - |
| 1788210666 | 31.67° C | 26% | 1017.5 hPa | 0 mm | - | 615 W/m² | - |
| 1788210361 | 31.11° C | 27% | 1017.7 hPa | 0 mm | - | 512 W/m² | - |
| 1788210057 | 30.56° C | 27% | 1017.8 hPa | 0 mm | - | 253 W/m² | - |
| 1788209756 | 30.56° C | 27% | 1017.7 hPa | 0 mm | - | 211 W/m² | - |
| 1788209469 | 31.11° C | 27% | 1018 hPa | 0 mm | - | 210 W/m² | - |
| 1788209147 | 31.67° C | 27% | 1017.8 hPa | 0 mm | - | 265 W/m² | - |
| 1788208846 | 31.67° C | 26% | 1017.8 hPa | 0 mm | - | 284 W/m² | - |
| 1788208541 | 32.22° C | 29% | 1017.7 hPa | 0 mm | - | 279 W/m² | - |
| 1788208240 | 32.22° C | 28% | 1018.1 hPa | 0 mm | - | 222 W/m² | - |
| 1788207933 | 31.67° C | 29% | 1017.8 hPa | 0 mm | - | 329 W/m² | - |
| 1788207633 | 32.78° C | 26% | 1018 hPa | 0 mm | - | 618 W/m² | - |
| 1788207332 | 33.33° C | 26% | 1018 hPa | 0 mm | - | 666 W/m² | - |
* Rain latest hour (hover to see other rain measurements)
** Current wind speed in m/s (hover to see current wind gust speed)